[[{"header":{"parameterUnit":"m.s-1","parameterCategory":2,"la1":30.2992,"la2":30.254,"lo1":-89.0895,"lo2":-89.0443,"dy":0.0025,"dx":0.0025,"nx":19,"ny":19,"refTime":"2026-04-22T09:00:00:Z","depth":"0","parameterNumber":2,"parameterNumberName":"U-component_of_CURRENTS"},"data":[0,0,0,0.3739,0.3741,0.3808,0.3809,0.4018,0.402,0,0,0,0,0,0,0,0,0,0,0,0.3714,0.3714,0.3739,0.3741,0.3808,0.3809,0.4017,0.402,0,0,0,0,0,0,0,0,0,0,0,0.3714,0.3714,0.3714,0.3741,0.3808,0.3809,0.4017,0.3937,0,0,0,0,0,0,0,0,0,0,0.3857,0.3811,0.3714,0.3714,0.3741,0.3808,0.3809,0.3932,0.3942,0.4019,0,0.402,0,0.4026,0.4036,0.4037,0,0,0,0.375,0.3802,0.3822,0.3714,0.3742,0.3808,0.378,0.3937,0.3949,0.4033,0.4023,0.403,0.403,0.4037,0.4038,0.4419,0.4422,0,0,0.3746,0.3733,0.3813,0.3829,0.3751,0.3778,0.3782,0.3943,0.3954,0.4023,0.4034,0.4033,0.4039,0.4041,0.4417,0.442,0,0,0,0.3729,0.373,0.3743,0.3821,0.3824,0.378,0.3785,0.3946,0.3951,0.4037,0.4036,0.404,0.4043,0.4414,0.4418,0.4473,0,0,0,0.3727,0.3719,0.3741,0.3735,0.382,0.3869,0.3785,0.3939,0.3957,0.4034,0.404,0.4045,0.4412,0.4416,0.4466,0.4533,0,0,0,0.3712,0.3718,0.3722,0.3734,0.3759,0.3866,0.3879,0.3943,0.3958,0.4037,0.4046,0.441,0.4416,0.4459,0.4522,0.4585,0,0,0,0.3702,0.3727,0.3722,0.3778,0.3758,0.3901,0.3878,0.3981,0.4054,0.4041,0.4412,0.4418,0.4457,0.4515,0.4578,0.4488,0.4511,0,0,0.3732,0.373,0.3772,0.377,0.3895,0.3893,0.4076,0.4137,0.4176,0.4363,0.4371,0.4468,0.4521,0.4584,0.4816,0.4828,0,0,0,0.3784,0.381,0.3856,0.3918,0.4009,0.4128,0.419,0.4265,0.4424,0.4243,0.4569,0.4605,0.4639,0.4574,0.4587,0.4379,0.4444,0.4443,0.4443,0.3791,0.3855,0.3947,0.4047,0.4153,0.4311,0.4441,0.457,0.456,0.4666,0.4721,0.4915,0.4852,0.4859,0.4649,0.4783,0.4783,0.4783,0.4783,0.3849,0.3906,0.4012,0.4118,0.4265,0.4428,0.4689,0.4732,0.4967,0.4914,0.494,0.4728,0.4875,0.4646,0.4788,0.4788,0.4787,0.4786,0.4786,0.3844,0.3883,0.3945,0.4109,0.4287,0.4488,0.4718,0.4903,0.5039,0.513,0.5026,0.5022,0.4753,0.5108,0.5109,0.511,0.511,0.5111,0.5111,0.38,0.3874,0.3943,0.4114,0.4211,0.4414,0.4746,0.4911,0.509,0.5148,0.5145,0.483,0.5015,0.4924,0.5121,0.5119,0.5118,0.5117,0.5116,0.381,0.3826,0.3924,0.4001,0.421,0.43,0.4607,0.4872,0.5071,0.5125,0.4906,0.5147,0.5123,0.5112,0.5028,0.5239,0.5239,0.5239,0.5239,0.3787,0.3817,0.3891,0.3979,0.4128,0.4249,0.4342,0.4566,0.4772,0.4782,0.4842,0.4695,0.4699,0.4641,0.4641,0.4544,0.4629,0.4628,0.4627,0.3794,0.3817,0.3839,0.3927,0.4065,0.415,0.4083,0.4043,0.4345,0.4583,0.4579,0.4605,0.4367,0.439,0.4278,0.4294,0.4128,0,0]},{"header":{"parameterUnit":"m.s-1","parameterCategory":2,"la1":30.2992,"la2":30.254,"lo1":-89.0895,"lo2":-89.0443,"dy":0.0025,"dx":0.0025,"nx":19,"ny":19,"refTime":"2026-04-22T09:00:00:Z","depth":"0","parameterNumber":3,"parameterNumberName":"V-component_of_CURRENTS"},"data":[0,0,0,0.0296,0.0296,0.0253,0.0252,0.0174,0.0173,0,0,0,0,0,0,0,0,0,0,0,0.0314,0.0314,0.0296,0.0295,0.0253,0.0252,0.0174,0.0173,0,0,0,0,0,0,0,0,0,0,0,0.0314,0.0314,0.0314,0.0295,0.0253,0.0252,0.0174,0.0211,0,0,0,0,0,0,0,0,0,0,0.0254,0.0275,0.0314,0.0314,0.0295,0.0253,0.0252,0.0212,0.0208,0.0189,0,0.019,0,0.0182,0.0168,0.0168,0,0,0,0.0287,0.0279,0.027,0.0314,0.0295,0.0253,0.027,0.021,0.0205,0.0183,0.0189,0.0186,0.018,0.0168,0.0167,0.0192,0.0193,0,0,0.029,0.03,0.0273,0.0267,0.0293,0.0271,0.0269,0.0208,0.0204,0.0189,0.0184,0.0179,0.0167,0.0167,0.0191,0.0192,0,0,0,0.0302,0.0301,0.0294,0.027,0.0265,0.027,0.0267,0.0207,0.0206,0.0184,0.0178,0.0167,0.0166,0.019,0.0191,0.0361,0,0,0,0.0303,0.0309,0.0296,0.03,0.0267,0.0238,0.0268,0.021,0.0203,0.0178,0.0167,0.0165,0.0189,0.0191,0.0354,0.0518,0,0,0,0.0314,0.031,0.0309,0.0301,0.0286,0.0239,0.0234,0.0208,0.02,0.0168,0.0165,0.0188,0.019,0.0348,0.0504,0.0623,0,0,0,0.0319,0.035,0.0309,0.0348,0.0286,0.0319,0.0234,0.0233,0.0215,0.0166,0.0189,0.0191,0.0346,0.0496,0.0614,0.0799,0.0854,0,0,0.037,0.0356,0.0384,0.0347,0.0411,0.0324,0.0396,0.0322,0.0238,0.0203,0.0204,0.0356,0.0504,0.0621,0.0913,0.0965,0,0,0,0.0409,0.0436,0.0445,0.047,0.0464,0.0498,0.0416,0.0399,0.0372,0.0237,0.0349,0.0439,0.0506,0.0598,0.0639,0.0386,0.02,0.02,0.02,0.0493,0.0508,0.0579,0.0601,0.0625,0.0614,0.0652,0.0613,0.0479,0.0498,0.0567,0.0773,0.087,0.0904,0.0639,0.0507,0.0508,0.0508,0.0509,0.0617,0.0678,0.0705,0.0783,0.081,0.0871,0.0891,0.0836,0.0903,0.074,0.0793,0.0763,0.096,0.066,0.0519,0.0518,0.0516,0.0515,0.0514,0.0689,0.073,0.077,0.091,0.1033,0.1064,0.1276,0.1219,0.1115,0.1184,0.1226,0.1224,0.0972,0.1165,0.1167,0.1168,0.1169,0.117,0.1171,0.0757,0.0804,0.0932,0.1065,0.1187,0.1376,0.1518,0.1619,0.1624,0.1506,0.1505,0.1037,0.0975,0.0962,0.119,0.1186,0.1184,0.1182,0.1181,0.0884,0.0901,0.1095,0.1223,0.1528,0.1828,0.1932,0.2163,0.2173,0.2208,0.1563,0.1655,0.1637,0.1603,0.1605,0.1986,0.1986,0.1986,0.1986,0.0971,0.0995,0.1266,0.1501,0.1806,0.2044,0.2508,0.262,0.2266,0.1983,0.1744,0.1561,0.1539,0.1498,0.1466,0.1456,0.1791,0.179,0.1789,0.1088,0.1151,0.1364,0.1583,0.1929,0.2319,0.2775,0.291,0.2246,0.174,0.1358,0.1366,0.1038,0.1025,0.0901,0.0876,0.0838,0,0]}],[{"header":{"parameterUnit":"m.s-1","parameterCategory":2,"la1":30.2992,"la2":30.254,"lo1":-89.0895,"lo2":-89.0443,"dy":0.0025,"dx":0.0025,"nx":19,"ny":19,"refTime":"2026-04-22T09:00:00:Z","depth":"2","parameterNumber":2,"parameterNumberName":"U-component_of_CURRENTS"},"data":[0,0,0,0.3317,0.3319,0.3402,0.3402,0.351,0.3511,0,0,0,0,0,0,0,0,0,0,0,0.3285,0.3285,0.3317,0.3319,0.3402,0.3402,0.351,0.3511,0,0,0,0,0,0,0,0,0,0,0,0.3284,0.3285,0.3286,0.3319,0.3401,0.3402,0.351,0.3446,0,0,0,0,0,0,0,0,0,0,0.3365,0.3337,0.3285,0.3286,0.332,0.3401,0.3402,0.3443,0.345,0.3475,0,0.349,0,0.3507,0.3519,0.3519,0,0,0,0.3316,0.3331,0.3354,0.3286,0.3321,0.3401,0.3363,0.3447,0.3455,0.3484,0.3491,0.3496,0.3509,0.352,0.352,0.3748,0.375,0,0,0.3311,0.33,0.3349,0.3359,0.3346,0.3361,0.3366,0.3452,0.3461,0.3492,0.3498,0.3511,0.352,0.3521,0.3747,0.3749,0,0,0,0.33,0.3297,0.3318,0.3355,0.3372,0.3363,0.3369,0.3457,0.3465,0.3499,0.3512,0.3521,0.3523,0.3745,0.3747,0.3795,0,0,0,0.3297,0.3291,0.3316,0.331,0.3371,0.3416,0.3373,0.3458,0.3469,0.3512,0.3521,0.3524,0.3743,0.3746,0.3789,0.3875,0,0,0,0.328,0.3289,0.3299,0.3309,0.3347,0.3415,0.3427,0.3461,0.3477,0.3519,0.3524,0.3742,0.3746,0.3785,0.3866,0.3931,0,0,0,0.3264,0.3279,0.3299,0.3326,0.3346,0.3434,0.3427,0.3492,0.3532,0.3522,0.3743,0.3747,0.3783,0.386,0.3925,0.3765,0.3778,0,0,0.327,0.328,0.3295,0.3316,0.3397,0.3422,0.3537,0.3577,0.3606,0.371,0.3715,0.3791,0.3865,0.393,0.3991,0.3996,0,0,0,0.3289,0.3306,0.3336,0.3385,0.3451,0.3553,0.3598,0.3659,0.3773,0.365,0.3858,0.3907,0.3943,0.3836,0.3843,0.3766,0.3765,0.3765,0.3764,0.3281,0.332,0.337,0.3439,0.3514,0.3654,0.3757,0.3861,0.3846,0.3932,0.399,0.4148,0.4036,0.4039,0.401,0.401,0.4011,0.4011,0.4011,0.3291,0.331,0.3396,0.346,0.3588,0.3709,0.3917,0.397,0.4177,0.4129,0.4159,0.3951,0.4048,0.4016,0.4015,0.4014,0.4014,0.4013,0.4013,0.3263,0.3279,0.3327,0.3436,0.3594,0.3764,0.397,0.4155,0.4252,0.434,0.4211,0.4206,0.4164,0.4334,0.4335,0.4335,0.4336,0.4336,0.4337,0.3204,0.3253,0.33,0.3431,0.3509,0.3712,0.4042,0.4177,0.4306,0.4326,0.4323,0.4258,0.4248,0.4188,0.4347,0.4345,0.4344,0.4343,0.4342,0.3147,0.3182,0.3239,0.3296,0.346,0.3506,0.3859,0.4066,0.4251,0.4249,0.4296,0.4293,0.4274,0.4265,0.4208,0.4365,0.4365,0.4365,0.4365,0.3093,0.3124,0.3176,0.3219,0.3294,0.34,0.3433,0.3619,0.39,0.3975,0.3992,0.3828,0.3837,0.3784,0.3787,0.3716,0.3745,0.3744,0.3742,0.3048,0.3085,0.3091,0.3149,0.3182,0.3192,0.3094,0.3064,0.3319,0.3713,0.3834,0.4333,0.413,0.4129,0.4074,0.4068,0.3966,0,0]},{"header":{"parameterUnit":"m.s-1","parameterCategory":2,"la1":30.2992,"la2":30.254,"lo1":-89.0895,"lo2":-89.0443,"dy":0.0025,"dx":0.0025,"nx":19,"ny":19,"refTime":"2026-04-22T09:00:00:Z","depth":"2","parameterNumber":3,"parameterNumberName":"V-component_of_CURRENTS"},"data":[0,0,0,0.0223,0.0223,0.0186,0.0186,0.0128,0.0127,0,0,0,0,0,0,0,0,0,0,0,0.0238,0.0238,0.0223,0.0223,0.0186,0.0186,0.0128,0.0127,0,0,0,0,0,0,0,0,0,0,0,0.0238,0.0238,0.0238,0.0223,0.0186,0.0186,0.0128,0.0157,0,0,0,0,0,0,0,0,0,0,0.0193,0.0209,0.0238,0.0238,0.0223,0.0186,0.0186,0.0158,0.0155,0.0144,0,0.0145,0,0.0136,0.0124,0.0124,0,0,0,0.0216,0.0212,0.0205,0.0238,0.0222,0.0186,0.0201,0.0156,0.0153,0.0139,0.0144,0.0141,0.0136,0.0124,0.0123,0.0159,0.016,0,0,0.0218,0.0226,0.0208,0.0203,0.0221,0.0202,0.02,0.0154,0.0152,0.0143,0.014,0.0135,0.0123,0.0123,0.0158,0.0159,0,0,0,0.0228,0.0227,0.0221,0.0205,0.0201,0.0201,0.0198,0.0154,0.0153,0.0139,0.0134,0.0123,0.0122,0.0157,0.0159,0.0286,0,0,0,0.0229,0.0234,0.0223,0.0226,0.0202,0.0178,0.0199,0.0156,0.0151,0.0134,0.0123,0.0122,0.0156,0.0158,0.0281,0.0398,0,0,0,0.0238,0.0235,0.0234,0.0227,0.0214,0.0179,0.0174,0.0155,0.0148,0.0124,0.0122,0.0156,0.0158,0.0276,0.0388,0.0461,0,0,0,0.0243,0.027,0.0234,0.027,0.0215,0.0249,0.0175,0.0177,0.0165,0.0123,0.0157,0.0158,0.0275,0.0382,0.0454,0.0513,0.0547,0,0,0.0286,0.0275,0.03,0.0269,0.0331,0.0253,0.0318,0.0256,0.0189,0.0167,0.0168,0.0283,0.0387,0.0459,0.062,0.0651,0,0,0,0.0321,0.0346,0.0356,0.0383,0.0382,0.0408,0.0342,0.032,0.0295,0.0191,0.0284,0.0348,0.0388,0.041,0.0435,0.0167,0.0167,0.0167,0.0167,0.0394,0.0412,0.0478,0.0503,0.0525,0.0514,0.0531,0.049,0.039,0.0399,0.045,0.0601,0.0625,0.0644,0.0415,0.0415,0.0416,0.0416,0.0417,0.0505,0.0559,0.059,0.0658,0.0681,0.0731,0.0726,0.0673,0.0698,0.0583,0.0613,0.0544,0.0679,0.0427,0.0425,0.0423,0.0422,0.0422,0.0421,0.0566,0.0602,0.064,0.0763,0.0868,0.0888,0.1037,0.0975,0.086,0.0898,0.0874,0.0871,0.07,0.0884,0.0885,0.0886,0.0886,0.0887,0.0888,0.0617,0.0666,0.077,0.0889,0.0989,0.114,0.1232,0.1267,0.1197,0.1073,0.1071,0.076,0.0744,0.0728,0.0901,0.0898,0.0897,0.0895,0.0895,0.0709,0.0728,0.0894,0.0998,0.1255,0.1481,0.1545,0.1608,0.1566,0.1523,0.1151,0.114,0.1113,0.1091,0.1083,0.1338,0.1338,0.1338,0.1338,0.0767,0.079,0.1025,0.1221,0.1465,0.1647,0.1909,0.1868,0.1637,0.1441,0.1436,0.1323,0.1304,0.1279,0.1252,0.1242,0.154,0.154,0.154,0.0846,0.091,0.1088,0.1285,0.1561,0.1842,0.2083,0.2028,0.1651,0.1544,0.1427,0.136,0.1174,0.1151,0.1086,0.1054,0.1027,0,0]}],[{"header":{"parameterUnit":"m.s-1","parameterCategory":2,"la1":30.2992,"la2":30.254,"lo1":-89.0895,"lo2":-89.0443,"dy":0.0025,"dx":0.0025,"nx":19,"ny":19,"refTime":"2026-04-22T09:00:00:Z","depth":"4","parameterNumber":2,"parameterNumberName":"U-component_of_CURRENTS"},"data":[0,0,0,0.2241,0.2246,0.2431,0.2432,0.2565,0.2566,0,0,0,0,0,0,0,0,0,0,0,0.2185,0.2187,0.2241,0.2246,0.2431,0.2432,0.2565,0.2566,0,0,0,0,0,0,0,0,0,0,0,0.2184,0.2186,0.2188,0.2247,0.2431,0.2432,0.2564,0.2449,0,0,0,0,0,0,0,0,0,0,0.2282,0.2253,0.2186,0.2188,0.2248,0.2431,0.2432,0.2445,0.2456,0.2453,0,0.2501,0,0.2534,0.2573,0.2573,0,0,0,0.2241,0.2244,0.2287,0.2189,0.225,0.243,0.2346,0.2452,0.2465,0.2468,0.2503,0.2509,0.2537,0.2573,0.2574,0.2686,0.2686,0,0,0.2231,0.2219,0.2279,0.2296,0.2321,0.234,0.2352,0.2461,0.2485,0.2503,0.2512,0.2539,0.2574,0.2575,0.2685,0.2686,0,0,0,0.2205,0.2212,0.2256,0.229,0.2332,0.2346,0.2359,0.2481,0.2495,0.2514,0.254,0.2575,0.2576,0.2685,0.2686,0.2751,0,0,0,0.2198,0.2197,0.2251,0.2246,0.2331,0.2424,0.2376,0.2487,0.2501,0.254,0.2575,0.2577,0.2684,0.2685,0.2749,0.2789,0,0,0,0.2172,0.2194,0.2222,0.2245,0.2326,0.2424,0.2445,0.2492,0.2516,0.2573,0.2577,0.2684,0.2685,0.2746,0.2785,0.2874,0,0,0,0.2143,0.2173,0.2222,0.2264,0.2325,0.2409,0.2445,0.2527,0.2578,0.2575,0.2684,0.2685,0.2745,0.2782,0.287,0.2509,0,0,0,0.2148,0.2174,0.2192,0.2239,0.2305,0.2381,0.247,0.256,0.2588,0.2639,0.2643,0.275,0.2784,0.2873,0.2573,0,0,0,0,0.217,0.2187,0.2216,0.2276,0.235,0.2453,0.2537,0.2595,0.2697,0.2627,0.2752,0.2772,0.2827,0.2603,0.2691,0.269,0.269,0.269,0.269,0.2142,0.2179,0.2221,0.2288,0.2363,0.2508,0.2602,0.2696,0.2713,0.2778,0.2828,0.2942,0.2706,0.2822,0.2822,0.2822,0.2823,0.2823,0.2823,0.212,0.2126,0.2224,0.2285,0.241,0.2518,0.269,0.2759,0.2922,0.2892,0.2942,0.2688,0.283,0.2828,0.2827,0.2827,0.2826,0.2826,0.2825,0.2061,0.2068,0.2145,0.2252,0.2405,0.2563,0.2718,0.2874,0.2988,0.3063,0.286,0.3009,0.3005,0.3112,0.3113,0.3113,0.3114,0.3114,0.3114,0.1959,0.2028,0.2076,0.2222,0.2312,0.2492,0.2769,0.287,0.3031,0.2913,0.3114,0.3041,0.3031,0.3022,0.3123,0.3122,0.3121,0.312,0.3119,0.1839,0.1906,0.1947,0.2024,0.2198,0.2304,0.2618,0.2752,0.2854,0.2839,0.2828,0.284,0.2796,0.2793,0.2773,0.2806,0.2801,0.2797,0,0.175,0.1786,0.1817,0.1864,0.1936,0.2157,0.2223,0.2404,0.2566,0.247,0.2836,0.2817,0.2825,0.2765,0.2757,0.2726,0,0,0,0.167,0.17,0.1669,0.1729,0.1779,0.1949,0.2219,0.2203,0.2545,0.2544,0.2691,0.2719,0.2948,0.315,0.3112,0.31,0.3084,0,0]},{"header":{"parameterUnit":"m.s-1","parameterCategory":2,"la1":30.2992,"la2":30.254,"lo1":-89.0895,"lo2":-89.0443,"dy":0.0025,"dx":0.0025,"nx":19,"ny":19,"refTime":"2026-04-22T09:00:00:Z","depth":"4","parameterNumber":3,"parameterNumberName":"V-component_of_CURRENTS"},"data":[0,0,0,0.0187,0.0187,0.017,0.017,0.0153,0.0153,0,0,0,0,0,0,0,0,0,0,0,0.0196,0.0196,0.0187,0.0187,0.017,0.017,0.0153,0.0153,0,0,0,0,0,0,0,0,0,0,0,0.0196,0.0196,0.0196,0.0187,0.017,0.017,0.0153,0.0164,0,0,0,0,0,0,0,0,0,0,0.0179,0.0186,0.0196,0.0196,0.0187,0.017,0.017,0.0164,0.0163,0.0164,0,0.0166,0,0.016,0.0152,0.0152,0,0,0,0.0183,0.0187,0.0185,0.0196,0.0187,0.017,0.0177,0.0163,0.0162,0.0162,0.0166,0.0165,0.016,0.0152,0.0152,0.0214,0.0214,0,0,0.0183,0.0189,0.0186,0.0184,0.0189,0.0177,0.0176,0.0163,0.0163,0.0166,0.0164,0.016,0.0152,0.0152,0.0213,0.0214,0,0,0,0.0189,0.019,0.0187,0.0185,0.0182,0.0177,0.0176,0.0164,0.0164,0.0164,0.016,0.0152,0.0152,0.0212,0.0213,0.0296,0,0,0,0.019,0.0193,0.0188,0.019,0.0183,0.0172,0.0177,0.0165,0.0163,0.016,0.0152,0.0152,0.0211,0.0213,0.0292,0.0347,0,0,0,0.0195,0.0194,0.0194,0.0191,0.0185,0.0172,0.0171,0.0164,0.016,0.0152,0.0152,0.0211,0.0212,0.0289,0.034,0.0363,0,0,0,0.0197,0.022,0.0195,0.0227,0.0186,0.0226,0.017,0.0188,0.0189,0.0152,0.0211,0.0213,0.0288,0.0336,0.0359,0.0373,0,0,0,0.0231,0.0224,0.0247,0.0225,0.0284,0.0227,0.0287,0.0254,0.0215,0.0213,0.0214,0.0294,0.0339,0.0362,0.0476,0,0,0,0,0.0263,0.0284,0.0296,0.0323,0.0333,0.0355,0.0321,0.0303,0.0297,0.0223,0.0306,0.0333,0.0344,0.0342,0.0222,0.0222,0.0221,0.0221,0.0221,0.0314,0.0335,0.0392,0.0422,0.0449,0.0447,0.0454,0.0426,0.0373,0.0384,0.0409,0.0499,0.0503,0.0408,0.0409,0.0409,0.041,0.041,0.041,0.0395,0.0437,0.0475,0.0538,0.0562,0.0611,0.0597,0.0558,0.0554,0.0498,0.0503,0.0442,0.0419,0.0417,0.0416,0.0415,0.0414,0.0413,0.0413,0.0434,0.046,0.0504,0.0609,0.0696,0.072,0.0796,0.0744,0.0653,0.0663,0.0631,0.0556,0.0537,0.0654,0.0655,0.0655,0.0656,0.0656,0.0656,0.0452,0.0501,0.0583,0.069,0.0775,0.0878,0.0914,0.0902,0.0809,0.0747,0.0689,0.0581,0.0573,0.0552,0.0662,0.0661,0.066,0.0659,0.0659,0.0497,0.0521,0.0647,0.0735,0.0937,0.1012,0.1056,0.1005,0.0981,0.0896,0.0771,0.0764,0.0731,0.0719,0.0701,0.0859,0.086,0.086,0,0.0519,0.0541,0.0713,0.0866,0.1027,0.1099,0.1128,0.11,0.0954,0.0939,0.0933,0.0794,0.0786,0.075,0.074,0.0721,0,0,0,0.0556,0.0606,0.0725,0.0885,0.1071,0.112,0.1141,0.1107,0.0988,0.0954,0.0876,0.0872,0.0786,0.0679,0.0611,0.0601,0.0562,0,0]}]]